Terminal Aerodrome Forecast
Issued by NWS Omaha/Valley, NE

Home | Current Version | Previous Version | Text Only | Print | Product List | Glossary On
Versions: 1 2 3 4 5 6 7 8 9 10 11 12 13 14 15 16 17 18 19 20 21 22 23 24 25 26 27 28 29 30 31 32 33 34 35 36 37 38 39 40 41 42
000
FTUS43 KOAX 240520
TAFOMA
TAF
KOMA 240520Z 2406/2506 12008KT P6SM OVC008
     FM241300 11013KT P6SM OVC020
     FM241500 11016G24KT P6SM VCSH OVC025
     FM242100 09009KT 4SM -RA BR OVC015
     FM242300 05010KT 1 1/2SM -RA BR OVC008
     FM250200 35010KT 1 1/2SM -RASNPL BR OVC004
     FM250400 33011KT 3SM -SN BR OVC007=

USA.gov is the U.S. government's official web portal to all federal, state and local government web resources and services.